User: anonymous   Login
Location: Unspecified
(0.0000°N, 0.0000°E)
Time: 13:01:53
(UTC+00:00)
Language:

OV3-3 - Orbit

View from above orbital plane
View from above orbital plane
View from above satellite
View from above satellite

Ground track
Ground track

The orbit data is extracted from the following two-line orbital elements,

1  2389U 66070A   18015.93695073 +.00001098 +00000-0 +58088-4 0  9999
2  2389 081.3883 355.6639 1247590 125.3087 247.1237 12.91063254197260
Epoch (UTC): 15 January 2018 22:29:12
Eccentricity: 0.1247590
inclination: 81.3883°
perigee height: 340 km
apogee height: 2255 km
right ascension of ascending node: 355.6639°
argument of perigee: 125.3087°
revolutions per day: 12.91063254
mean anomaly at epoch: 247.1237°
orbit number at epoch: 19726

The dashed part of the orbit path shows where the satellite is in the earth's shadow,  

DLR